Location: Bishopstone
(51.0167°N, 1.9000°W)
Time: 08:16:17
(UTC+00:00)

Cosmos 1536 Rocket - Pass Details

Date: 16 September 2019
Orbit: 604 x 633 km, 82.5° (Epoch: 14 October)

Event Time Altitude Azimuth Distance (km) Brightness Sun altitude
Rises 18:42:06 0° 352° (N) 2,882 7.2 -4.2°
Reaches altitude 10° 18:44:21 10° 355° (N) 1,970 6.3 -4.6°
Maximum altitude 18:48:40 62° 77° (ENE) 686 3.6 -5.3°
Drops below altitude 10° 18:52:57 10° 159° (SSE) 1,949 5.8 -5.9°
Sets 18:55:10 0° 162° (SSE) 2,848 6.7 -6.3°
